Powrót do katalogu

STARLINK-3355

AktywnyŁącznośćVLEO
NORAD 50808·PAYLOAD·🇺🇸 United States

Wystrzelony Jan 6, 2022 z Cape Canaveral Space Force Station

Loading…

Następne Przeloty (najbliższe 24 godziny)

TLE

ŚwieżeSource: CelesTrak SupGP

Epoka: Sep 14, 2026, 21:39 UTC

1 50808C 22001F   26257.90256944 -.00013849  00000+0 -44540-3 0  2570
2 50808  53.1599  17.8258 0001212  76.4132 202.4337 15.31705241    16

Śledź STARLINK-3355 w czasie rzeczywistym z AllMySat

Download on the App Store